Chongqing, China

4:54 PM CST on November 18, 2019 (GMT +0800)
Jiangbei

Weather History for ZUCK - September, 2019

Change the Weather History Date:

Monday, September 23, 2019

  Actual Average Record
Temperature  
Mean Temperature 74 °F -  
Max Temperature 82 °F - - ()
Min Temperature 66 °F - - ()
Cooling Degree Days 9    
Growing Degree Days 24 (Base 50)    
Moisture  
Dew Point 61 °F    
Average Humidity 63    
Maximum Humidity 88    
Minimum Humidity 36    
Precipitation  
Precipitation 0.00 in - - ()
Sea Level Pressure  
Sea Level Pressure 30.16 in    
Wind  
Wind Speed 5 mph ()    
Max Wind Speed 11 mph    
Max Gust Speed -    
Visibility 5.4 miles    
Events      
T = Trace of Precipitation, MM = Missing Value Source: Averaged Metar Reports

Daily Weather History Graph

Daily Weather History Graph

Search for Another Location

Airport or City:

Astronomy

Sep. 23, 2019 Rise Set
Actual Time 6:41 AM CST 6:49 PM CST
Civil Twilight 6:18 AM CST 7:13 PM CST
Nautical Twilight 5:50 AM CST 7:41 PM CST
Astronomical Twilight 5:22 AM CST 8:09 PM CST
Moon 12:22 AM CST (9/23) 2:44 PM CST (9/23)
Length of Visible Light 12h 55m
Length of Day
12h 07m
Last Quarter, 39% of the Moon is Illuminated
Sep 23
Last Quarter
Sep 29
New
Oct 6
First Quarter
Oct 14
Full
Oct 21
Last Quarter

Hourly Weather History & Observations

Time (CST) Temp. Heat Index Dew Point Humidity Pressure Visibility Wind Dir Wind Speed Gust Speed Precip Events Conditions
12:00 AM 69.8 °F - 62.6 °F 78% 30.15 in - North 6.7 mph - N/A   Clear
1:00 AM 68.0 °F - 62.6 °F 83% 30.15 in - North 6.7 mph - N/A   Clear
2:00 AM 70 °F - 64 °F 77% 30.10 in 4 mi WNW 2.2 mph - -   Mist
2:00 AM 66.2 °F - 60.8 °F 83% 30.15 in - North 4.5 mph - N/A   Clear
3:00 AM 69.8 °F - 60.8 °F 73% 30.15 in - North 2.2 mph - N/A   Clear
4:00 AM 68.0 °F - 60.8 °F 78% 30.15 in - NNE 2.2 mph - N/A   Clear
5:00 AM 68 °F - 64 °F 81% 30.10 in 4 mi WNW 4.5 mph - -   Mist
5:00 AM 68.0 °F - 60.8 °F 78% 30.15 in - Calm Calm - N/A   Clear
6:00 AM 66.2 °F - 62.6 °F 88% 30.18 in - NNE 4.5 mph - N/A   Clear
7:00 AM 66.2 °F - 60.8 °F 83% 30.18 in - NNE 4.5 mph - N/A   Clear
8:00 AM 69 °F - 63 °F 76% 30.16 in 4 mi NW 2.2 mph - -   Mostly Cloudy
8:00 AM 68.0 °F - 62.6 °F 83% 30.21 in - North 6.7 mph - N/A   Clear
9:00 AM 71.6 °F - 62.6 °F 73% 30.21 in - NNE 6.7 mph - N/A   Clear
10:00 AM 77.0 °F - 60.8 °F 57% 30.24 in - ENE 4.5 mph - N/A   Clear
11:00 AM 79 °F - 63 °F 48% 30.17 in 6 mi SE 4.5 mph - -   Mostly Cloudy
11:00 AM 78.8 °F - 62.6 °F 57% 30.24 in - Variable 2.2 mph - N/A   Clear
12:00 PM 78.8 °F - 57.2 °F 47% 30.21 in - Variable 4.5 mph - N/A   Clear
1:00 PM 82.4 °F 82.0 °F 57.2 °F 42% 30.18 in - Variable 2.2 mph - N/A   Clear
2:00 PM 80 °F - 61 °F 42% 30.11 in 7 mi NW 4.5 mph - -   Mostly Cloudy
2:00 PM 82.4 °F 82.0 °F 57.2 °F 42% 30.18 in - NNW 6.7 mph - N/A   Clear
4:00 PM 80.6 °F 80.8 °F 57.2 °F 45% 30.15 in 6.2 mi NNW 8.9 mph - N/A   Scattered Clouds
5:00 PM 80 °F - 58 °F 36% 30.09 in 6 mi NNW 6.7 mph - -   Mostly Cloudy
5:00 PM 80.6 °F 81.1 °F 59.0 °F 48% 30.15 in - NW 8.9 mph - N/A   Clear
6:00 PM 78.8 °F - 59.0 °F 51% 30.15 in - NNE 8.9 mph - N/A   Clear
7:00 PM 77.0 °F - 60.8 °F 57% 30.15 in - North 11.2 mph - N/A   Clear
8:00 PM 76 °F - 59 °F 46% 30.12 in 6 mi NW 4.5 mph - -   Overcast
8:00 PM 75.2 °F - 60.8 °F 61% 30.18 in - North 11.2 mph - N/A   Clear
9:00 PM 75.2 °F - 60.8 °F 61% 30.18 in - North 8.9 mph - N/A   Clear
10:00 PM 73.4 °F - 60.8 °F 65% 30.21 in - North 8.9 mph - N/A   Clear
11:00 PM 73 °F - 61 °F 58% 30.15 in 5 mi NW 4.5 mph - -  
11:00 PM 73.4 °F - 60.8 °F 65% 30.21 in - North 8.9 mph - N/A   Clear